Scroll down
FLIGHT INFORMATION
United Parcel Service (UPS)

UPS2201

At Arrival Gate

PANC
 KMIA
DATE: 2020-08-01
GATE:  -
GATE DEPARTURE: 13:13
TAKEOFF: 13:20
DATE: 2020-08-01
GATE:  -
LANDING: 20:56
GATE ARRIVAL: 21:02
FLIGHT DATA
Crew: ROBERTO STOPNICKI
Speed: 551 kts Altitude: 43000 ft
Stage Length: 3475 nm
Route: PANC TED YESKA REMBY COHIL GOROV 58N26 LEPET NUBEG WAINN REFEX VLN CFHLT MOT ABR FSD EYHUX DSM JAVAS CHASY SKBOZ COLIE TWAIN STL SLVER FAM CRELL VISQA DITZL FLORS BEATS GETME VUZ WYATT BULZI NICKI BITNY ENDEW JUULI KMIA
Block Time:  -  Flight Time:  -
Fuel Used: 144371 LB
TRACK DATA
50000 FT1000 KT
AIRCRAFT INFO AND CUMULATIVE STATS
Aircraft Type: B748F
Registration: N610UP
SELCAL:  MSN/LN: 64256 / 1547
Operator: UNITED PARCEL SERVICE (UPS)
Total Flights: 7 
Total Block Time: 60.1 Total Flight Time: 58.1
Total Fuel Used: 1136757 LB
DATALINK LOG | Newest first | Current as of: 2020-10-27 05:38:02
LABEL SEQUENCE CONTENT Dn/Up
QD051321:02 75.4▼ Dn
QC590920:56▼ Dn
GA3851ADVANCED GATE ASSIGNMENTS NOT YET AVAILABLE AT THIS AIRPORT▲ Up
GR3851KMIA 20:56 MAAS YP/UM WCHR/S/C HI-VAL YES DIPL/VIP NO▼ Dn
2U2702KMIA 011953Z 02008KT 330V050 10SM SCT036CB SCT060 BKN130 28/25 A2985 RMK AO2 RAE43 SLP108 CB NE MOV SW P0008 T02780250 $▲ Up
2S2942KMIA▼ Dn
UM202454CLEARED TO FL 430▲ Up
DM62443REQUEST FL 430 DUE TO A/C PERF▼ Dn
5U1922KMIA 012121Z 03020KT 10SM SHRA VCTS BKN035CB 29/24 A2991▲ Up
5S2140KMIA▼ Dn
2U5414KMIA 011553Z 05017G23KT 10SM SCT025 SCT032 BKN055 31/23 A2992 RMK AO2 SLP130 T03110228 $▲ Up
2S5616KMIA▼ Dn
GA5615ADVANCED GATE ASSIGNMENTS NOT YET AVAILABLE AT THIS AIRPORT▲ Up
GR5615KMIA 20:55 MAAS YP/UM WCHR/S/C HI-VAL YES DIPL/VIP NO▼ Dn
QB225113:20▼ Dn
QA154513:13 219.7▼ Dn
A30133CLEARED TO KMIA VIA TED YESKA NCA11 GOROV 58N126W LEPET NUBEG Q971 WAINN REFEX VLN J483 MOT ABR Q19 STL J151 VUZ WYATT BULZI NICKI Q81 ENDEW JUULI SSCOT5. SQUAWK .▲ Up
B30132PANC KMIA UPS2201 A ▼ Dn
Q05829[LINK ACK]▲ Up
Q05829[LINK TEST]▼ Dn


AIRCRAFT HISTORY
FLIGHT DATE FLIGHT NO. ORIGIN DESTINATION ROUTE BLOCK TIME FLIGHT TIME FUEL USED (LB) PILOT
2020-10-24UPS5X0613EGLL SEQM EGLL CPT GAJIT TOFED SUNFI GAPLI NERTU BEDRA 4820N 4430N 3940N 3250N KAVAX ZABOR SOCCO YIYYO SCAPA BOSCO BEXER PITOS GUDEL KERLI ONDAS ABA NOREX EJA MQU ARNOK SEQM11.511.1257197Charles Harris
2020-08-19UPS819KSEA EGLL KSEA ALPSE YDC YNY 54N15 57N10 6030N10000W 6390N 6430N08000W 6570N NALDI CLAVY 6350N 6240N 6030N 5820N AGORI OSBOX MIMKU KELLY CASEL PENIL WAL EKLAD MOGTA NANTI NUGRA TOBID SOPIT WCONB BNN RW27R98.9179370Randall Smith
2020-08-16UPS5691KATL KSEA KATL MPASS ZELAN WURLD PENCL LEDRR JAACE BNA LAJUG TINGS DENNI PLESS STL LMN ONL RAP KD90U BIL HLN GEG TEMPL WITRO ODAHL GLASR JAKSN WOODI HETHR ERYKA RW16C4.84.4106960Pete L.
2020-08-09UPS6388KPDX KATL KPDX PEGTY KELYY ARUPT LAVAA PDT LKT BOY BFF LBF CATTS BUM BNA NEWBB IHAVE MTHEW MGRIF BBABE LEMKE CHPPR MRCHH HIDRO RAIIN KLOWD SWEPT KYMMY KEAVY JIRRI RW26L4.4497898Pete L.
2020-08-05UPS6127KMIA KPDX KMIA POTTR HITAG KAINS FORKK HOSFU VVMAX HEDLY LAL CTY MGM LIT ICT GLD LAR DBS DNJ JKNOX MYTOE BAYYR HHOOD BLRUN SHAFR RW28L5.65.3129114Pete L.
2020-08-01UPS2201PANC KMIA PANC TED YESKA REMBY COHIL GOROV 58N26 LEPET NUBEG WAINN REFEX VLN CFHLT MOT ABR FSD EYHUX DSM JAVAS CHASY SKBOZ COLIE TWAIN STL SLVER FAM CRELL VISQA DITZL FLORS BEATS GETME VUZ WYATT BULZI NICKI BITNY ENDEW JUULI KMIA7.87.6144371Roberto Stopnicki
2020-06-29UPS67VHHH PANC VHHH PORPA TD OCEAN RASSE CONGA ENVAR DADON EXTRA RENOT TONGA TOROX ANLOT PILOX SANAS KUDOS LEKOS MORSU MOLKA MAMOD MUMBA MELEN MOMPA MIDAI MADOG MEXIR IMPAL OTOWA ANKIX IGMIS MOSLO TASOT LAKOS LIGNI POROT DOVIX PUTER POXED PUGAL PASRO POWAL PLADO PINSO POOFF PINTT PTZGR PUGGY POETT SELDM PORGE HAMND BTWEN CKING SNAAG NEELL SHNKN ELIAS WEWWO RW07R9.59221847Dan Downs